Regional Weather Roundup
Issued by NWS

Home | Current Version | Previous Version | Text Only | Print | Product List | Glossary Off
Versions: 1 2 3 4 5 6 7 8 9 10 11 12 13 14 15 16 17 18 19 20 21 22 23 24 25 26 27 28 29 30 31 32 33 34 35 36 37 38 39 40 41 42 43 44 45 46 47 48 49 50

000
ASUS43 KLMK 191110
RWRKY
KENTUCKY REGIONAL WEATHER ROUNDUP
NATIONAL WEATHER SERVICE LOUISVILLE KY
700 AM EDT THU OCT 19 2017

NOTE "FAIR" INDICATES FEW OR NO CLOUDS BELOW 12,000 FEET
WITH NO SIGNIFICANT WEATHER AND/OR OBSTRUCTIONS TO VISIBILITY.

KYZ001>023-026-027-061>063-070>075-191200-
WESTERN AND SOUTH CENTRAL KENTUCKY

CITY           SKY/WX    TMP DP  RH WIND       PRES   REMARKS
PADUCAH        CLEAR     50  44  80 CALM      30.22R
HENDERSON      CLEAR     47  45  93 S5        30.23R
OWENSBORO      CLEAR     48  44  86 S5        30.24R
HOPKINSVILLE   CLEAR     46  44  93 SE3       30.25R
BOWLING GREEN  CLEAR     41  40  96 CALM      30.28R FOG
GLASGOW        CLEAR    N/A N/A N/A CALM      30.28R
$$

KYZ024-025-028>034-038-045-046-053-191200-
NORTH CENTRAL KENTUCKY

CITY           SKY/WX    TMP DP  RH WIND       PRES   REMARKS
LOUISVILLE/SDF CLEAR     49  44  83 SE6       30.24S
LOUISVILLE/LOU CLEAR     47  45  93 S5        30.25R
FORT KNOX      CLEAR     44  42  92 CALM      30.23F
$$

KYZ035>037-039>044-047>052-055>060-089>105-191200-
NORTHEAST KENTUCKY

CITY           SKY/WX    TMP DP  RH WIND       PRES   REMARKS
LEXINGTON      CLEAR     47  42  83 S8        30.26R
COVINGTON      CLEAR     47  45  93 S8        30.22R
FRANKFORT      CLEAR     43  40  89 SE3       30.25R
$$

KYZ054-064>069-076>088-106>120-191200-
SOUTHEAST KENTUCKY

CITY           SKY/WX    TMP DP  RH WIND       PRES   REMARKS
JACKSON        CLEAR     48  43  82 CALM      30.29R
LONDON         CLEAR     40  38  93 CALM      30.30R
SOMERSET       CLEAR     41  41 100 CALM      30.31R
MIDDLESBORO    FOG       39  39 100 CALM      30.33R VSB 1/4
MONTICELLO     SUNNY     37  36  96 W9        30.32R WCI  30
$$





USA.gov is the U.S. government's official web portal to all federal, state and local government web resources and services.